Time,TemperatureF,DewpointF,PressureIn,WindDirection,WindDirectionDegrees,WindSpeedMPH,WindSpeedGustMPH,Humidity,HourlyPrecipIn,Conditions,Clouds,dailyrainin,SoftwareType,DateUTC
2013-03-14 00:12:00,57.0,47.0,30.18,WNW,301,0.0,0.0,70,0.00,,,0.00,,2013-03-14 04:12:00,
2013-03-14 00:22:00,57.0,48.0,30.18,WNW,301,0.0,0.0,72,0.00,,,0.00,,2013-03-14 04:22:00,
2013-03-14 00:32:00,57.0,49.0,30.18,WNW,301,0.0,0.0,74,0.00,,,0.00,,2013-03-14 04:32:00,
2013-03-14 00:42:00,57.0,49.0,30.18,WNW,301,0.0,0.0,74,0.00,,,0.00,,2013-03-14 04:42:00,
2013-03-14 00:53:00,56.0,49.0,30.18,WNW,301,0.0,0.0,77,0.00,,,0.00,,2013-03-14 04:53:00,
2013-03-14 01:02:00,56.0,49.0,30.18,WNW,301,0.0,0.0,78,0.00,,,0.00,,2013-03-14 05:02:00,
2013-03-14 01:13:00,56.0,49.0,30.18,WNW,301,0.0,0.0,78,0.00,,,0.00,,2013-03-14 05:13:00,
2013-03-14 01:22:00,55.0,49.0,30.17,WNW,301,0.0,0.0,79,0.00,,,0.00,,2013-03-14 05:22:00,
2013-03-14 01:33:00,55.0,49.0,30.17,WNW,301,0.0,0.0,81,0.00,,,0.00,,2013-03-14 05:33:00,
2013-03-14 01:42:00,55.0,49.0,30.17,WNW,301,0.0,0.0,81,0.00,,,0.00,,2013-03-14 05:42:00,
2013-03-14 01:53:00,55.0,49.0,30.17,WNW,301,0.0,0.0,81,0.00,,,0.00,,2013-03-14 05:53:00,
2013-03-14 02:02:00,55.0,51.0,30.16,WNW,302,0.0,3.0,85,0.00,,,0.00,,2013-03-14 06:02:00,
2013-03-14 02:12:00,55.0,51.0,30.16,WNW,302,0.0,3.0,85,0.00,,,0.00,,2013-03-14 06:12:00,
2013-03-14 02:22:00,56.0,52.0,30.17,NW,305,0.0,6.0,86,0.00,,,0.00,,2013-03-14 06:22:00,
2013-03-14 02:33:00,56.0,52.0,30.16,NW,312,0.0,6.0,85,0.00,,,0.00,,2013-03-14 06:33:00,
2013-03-14 02:42:00,56.0,52.0,30.16,NW,312,0.0,6.0,85,0.00,,,0.00,,2013-03-14 06:42:00,
2013-03-14 02:52:00,57.0,51.0,30.16,NW,304,1.0,8.0,81,0.00,,,0.00,,2013-03-14 06:52:00,
2013-03-14 03:02:00,58.0,50.0,30.17,North,355,2.0,9.0,74,0.00,,,0.00,,2013-03-14 07:02:00,
2013-03-14 03:12:00,58.0,50.0,30.17,North,355,2.0,9.0,74,0.00,,,0.00,,2013-03-14 07:12:00,
2013-03-14 03:22:00,59.0,48.0,30.17,NW,319,3.0,9.0,66,0.00,,,0.00,,2013-03-14 07:22:00,
2013-03-14 03:32:00,59.0,48.0,30.16,NNW,343,3.0,10.0,66,0.00,,,0.00,,2013-03-14 07:32:00,
2013-03-14 03:43:00,59.0,48.0,30.16,NNW,343,3.0,10.0,66,0.00,,,0.00,,2013-03-14 07:43:00,
2013-03-14 03:52:00,59.0,47.0,30.17,NNW,328,4.0,9.0,64,0.00,,,0.00,,2013-03-14 07:52:00,
2013-03-14 04:02:00,59.0,45.0,30.17,NW,326,7.0,15.0,60,0.00,,,0.00,,2013-03-14 08:02:00,
2013-03-14 04:12:00,59.0,45.0,30.17,NW,326,7.0,15.0,60,0.00,,,0.00,,2013-03-14 08:12:00,
2013-03-14 04:22:00,59.0,45.0,30.18,NNW,342,0.0,13.0,59,0.00,,,0.00,,2013-03-14 08:22:00,
2013-03-14 04:32:00,59.0,45.0,30.18,WNW,301,1.0,8.0,59,0.00,,,0.00,,2013-03-14 08:32:00,
2013-03-14 04:42:00,59.0,45.0,30.18,WNW,301,1.0,8.0,59,0.00,,,0.00,,2013-03-14 08:42:00,
2013-03-14 04:52:00,58.0,42.0,30.18,NW,316,1.0,10.0,55,0.00,,,0.00,,2013-03-14 08:52:00,
2013-03-14 05:02:00,58.0,41.0,30.18,NNW,343,2.0,9.0,54,0.00,,,0.00,,2013-03-14 09:02:00,
2013-03-14 05:12:00,58.0,41.0,30.18,NNW,343,2.0,9.0,54,0.00,,,0.00,,2013-03-14 09:12:00,
2013-03-14 05:22:00,57.0,42.0,30.19,North,354,0.0,7.0,57,0.00,,,0.00,,2013-03-14 09:22:00,
2013-03-14 05:32:00,57.0,43.0,30.19,NW,323,0.0,5.0,59,0.00,,,0.00,,2013-03-14 09:32:00,
2013-03-14 05:42:00,57.0,43.0,30.19,NW,323,0.0,5.0,59,0.00,,,0.00,,2013-03-14 09:42:00,
2013-03-14 05:52:00,56.0,42.0,30.20,NNW,342,0.0,9.0,59,0.00,,,0.00,,2013-03-14 09:52:00,
2013-03-14 06:02:00,56.0,41.0,30.20,NNE,18,2.0,9.0,57,0.00,,,0.00,,2013-03-14 10:02:00,
2013-03-14 06:12:00,56.0,41.0,30.20,NNE,18,2.0,9.0,57,0.00,,,0.00,,2013-03-14 10:12:00,
2013-03-14 06:22:00,55.0,38.0,30.21,WNW,303,3.0,10.0,53,0.00,,,0.00,,2013-03-14 10:22:00,
2013-03-14 06:32:00,55.0,37.0,30.21,NNW,346,3.0,12.0,51,0.00,,,0.00,,2013-03-14 10:32:00,
2013-03-14 06:42:00,55.0,37.0,30.21,NNW,346,3.0,12.0,51,0.00,,,0.00,,2013-03-14 10:42:00,
2013-03-14 06:52:00,55.0,37.0,30.22,NNE,24,5.0,9.0,50,0.00,,,0.00,,2013-03-14 10:52:00,
2013-03-14 07:02:00,55.0,35.0,30.23,NNE,29,6.0,12.0,46,0.00,,,0.00,,2013-03-14 11:02:00,
2013-03-14 07:12:00,55.0,35.0,30.23,NNE,29,6.0,12.0,46,0.00,,,0.00,,2013-03-14 11:12:00,
2013-03-14 07:22:00,55.0,34.0,30.24,NNW,342,1.0,15.0,45,0.00,,,0.00,,2013-03-14 11:22:00,
2013-03-14 07:33:00,54.0,33.0,30.24,North,1,6.0,13.0,44,0.00,,,0.00,,2013-03-14 11:33:00,
2013-03-14 07:42:00,54.0,33.0,30.24,North,1,6.0,13.0,44,0.00,,,0.00,,2013-03-14 11:42:00,
2013-03-14 07:53:00,54.0,33.0,30.25,NNE,21,4.0,14.0,45,0.00,,,0.00,,2013-03-14 11:53:00,
2013-03-14 08:02:00,54.0,33.0,30.26,North,356,2.0,15.0,44,0.00,,,0.00,,2013-03-14 12:02:00,
2013-03-14 08:12:00,54.0,33.0,30.26,North,356,2.0,15.0,44,0.00,,,0.00,,2013-03-14 12:12:00,
2013-03-14 08:22:00,53.0,33.0,30.26,NNE,18,6.0,15.0,46,0.00,,,0.00,,2013-03-14 12:22:00,
2013-03-14 08:33:00,53.0,33.0,30.27,North,359,3.0,12.0,47,0.00,,,0.00,,2013-03-14 12:33:00,
2013-03-14 08:42:00,53.0,33.0,30.27,North,359,3.0,12.0,47,0.00,,,0.00,,2013-03-14 12:42:00,
2013-03-14 08:52:00,53.0,34.0,30.27,NNE,13,1.0,13.0,48,0.00,,,0.00,,2013-03-14 12:52:00,
2013-03-14 09:02:00,53.0,33.0,30.27,NNE,21,3.0,12.0,46,0.00,,,0.00,,2013-03-14 13:02:00,
2013-03-14 09:13:00,53.0,33.0,30.27,NNE,21,3.0,12.0,46,0.00,,,0.00,,2013-03-14 13:13:00,
2013-03-14 09:22:00,54.0,34.0,30.27,NNE,22,1.0,15.0,46,0.00,,,0.00,,2013-03-14 13:22:00,
2013-03-14 09:32:00,54.0,33.0,30.28,North,8,5.0,15.0,44,0.00,,,0.00,,2013-03-14 13:32:00,
2013-03-14 09:43:00,54.0,33.0,30.28,North,8,5.0,15.0,44,0.00,,,0.00,,2013-03-14 13:43:00,
2013-03-14 09:52:00,54.0,33.0,30.28,North,8,5.0,15.0,44,0.00,,,0.00,,2013-03-14 13:52:00,
2013-03-14 10:02:00,54.0,33.0,30.28,NNW,332,2.0,13.0,44,0.00,,,0.00,,2013-03-14 14:02:00,
2013-03-14 10:12:00,54.0,33.0,30.28,NNW,332,2.0,13.0,44,0.00,,,0.00,,2013-03-14 14:12:00,
2013-03-14 10:22:00,55.0,33.0,30.27,NNE,22,4.0,13.0,43,0.00,,,0.00,,2013-03-14 14:22:00,
2013-03-14 10:32:00,55.0,33.0,30.27,NNE,20,2.0,13.0,43,0.00,,,0.00,,2013-03-14 14:32:00,
2013-03-14 10:42:00,55.0,33.0,30.27,NNE,20,2.0,13.0,43,0.00,,,0.00,,2013-03-14 14:42:00,
2013-03-14 10:53:00,56.0,33.0,30.28,NNE,30,3.0,13.0,41,0.00,,,0.00,,2013-03-14 14:53:00,
2013-03-14 11:02:00,56.0,33.0,30.27,NE,44,1.0,12.0,41,0.00,,,0.00,,2013-03-14 15:02:00,
2013-03-14 11:12:00,56.0,33.0,30.27,NE,44,1.0,12.0,41,0.00,,,0.00,,2013-03-14 15:12:00,
2013-03-14 11:22:00,57.0,33.0,30.27,NNE,29,3.0,16.0,40,0.00,,,0.00,,2013-03-14 15:22:00,
2013-03-14 11:33:00,57.0,32.0,30.27,North,9,5.0,16.0,38,0.00,,,0.00,,2013-03-14 15:33:00,
2013-03-14 11:43:00,57.0,32.0,30.27,North,9,5.0,16.0,38,0.00,,,0.00,,2013-03-14 15:43:00,
2013-03-14 11:52:00,59.0,33.0,30.26,North,359,2.0,15.0,37,0.00,,,0.00,,2013-03-14 15:52:00,
2013-03-14 12:03:00,59.0,29.0,30.26,NNE,26,6.0,14.0,32,0.00,,,0.00,,2013-03-14 16:03:00,
2013-03-14 12:13:00,59.0,29.0,30.26,NNE,26,6.0,14.0,32,0.00,,,0.00,,2013-03-14 16:13:00,
2013-03-14 12:23:00,60.0,30.0,30.25,NNW,333,5.0,13.0,32,0.00,,,0.00,,2013-03-14 16:23:00,
2013-03-14 12:32:00,60.0,32.0,30.25,NNE,21,2.0,12.0,34,0.00,,,0.00,,2013-03-14 16:32:00,
2013-03-14 12:42:00,60.0,32.0,30.25,NNE,21,2.0,12.0,34,0.00,,,0.00,,2013-03-14 16:42:00,
2013-03-14 12:52:00,62.0,32.0,30.25,NNW,340,5.0,10.0,32,0.00,,,0.00,,2013-03-14 16:52:00,
2013-03-14 13:02:00,62.0,32.0,30.25,NE,34,3.0,14.0,32,0.00,,,0.00,,2013-03-14 17:02:00,
2013-03-14 13:13:00,62.0,32.0,30.25,NE,34,3.0,14.0,32,0.00,,,0.00,,2013-03-14 17:13:00,
2013-03-14 13:23:00,63.0,32.0,30.24,West,267,0.0,12.0,31,0.00,,,0.00,,2013-03-14 17:23:00,
2013-03-14 13:33:00,64.0,29.0,30.24,NNE,32,4.0,12.0,27,0.00,,,0.00,,2013-03-14 17:33:00,
2013-03-14 13:42:00,64.0,29.0,30.24,NNE,32,4.0,12.0,27,0.00,,,0.00,,2013-03-14 17:42:00,
2013-03-14 13:53:00,65.0,30.0,30.23,NNW,331,4.0,13.0,27,0.00,,,0.00,,2013-03-14 17:53:00,
2013-03-14 14:03:00,65.0,29.0,30.23,NW,309,5.0,15.0,26,0.00,,,0.00,,2013-03-14 18:03:00,
2013-03-14 14:12:00,65.0,29.0,30.23,NW,309,5.0,15.0,26,0.00,,,0.00,,2013-03-14 18:12:00,
2013-03-14 14:23:00,65.0,29.0,30.22,North,353,5.0,10.0,26,0.00,,,0.00,,2013-03-14 18:23:00,
2013-03-14 14:33:00,66.0,32.0,30.22,NNW,340,1.0,10.0,28,0.00,,,0.00,,2013-03-14 18:33:00,
2013-03-14 14:43:00,66.0,32.0,30.22,NNW,340,1.0,10.0,28,0.00,,,0.00,,2013-03-14 18:43:00,
2013-03-14 14:53:00,66.0,33.0,30.21,WNW,291,6.0,13.0,29,0.00,,,0.00,,2013-03-14 18:53:00,
2013-03-14 15:03:00,66.0,34.0,30.21,NNW,329,5.0,14.0,30,0.00,,,0.00,,2013-03-14 19:03:00,
2013-03-14 15:12:00,66.0,34.0,30.21,NNW,329,5.0,14.0,30,0.00,,,0.00,,2013-03-14 19:12:00,
2013-03-14 15:23:00,66.0,34.0,30.20,NNW,342,1.0,13.0,31,0.00,,,0.00,,2013-03-14 19:23:00,
2013-03-14 15:32:00,66.0,35.0,30.20,NW,308,2.0,14.0,32,0.00,,,0.00,,2013-03-14 19:32:00,
2013-03-14 15:42:00,66.0,35.0,30.20,NW,308,2.0,14.0,32,0.00,,,0.00,,2013-03-14 19:42:00,
2013-03-14 15:52:00,65.0,35.0,30.20,NNW,341,6.0,13.0,33,0.00,,,0.00,,2013-03-14 19:52:00,
2013-03-14 16:02:00,65.0,35.0,30.19,NW,317,5.0,13.0,33,0.00,,,0.00,,2013-03-14 20:02:00,
2013-03-14 16:12:00,65.0,35.0,30.19,NW,317,5.0,13.0,33,0.00,,,0.00,,2013-03-14 20:12:00,
2013-03-14 16:22:00,65.0,35.0,30.19,NNW,344,2.0,13.0,33,0.00,,,0.00,,2013-03-14 20:22:00,
2013-03-14 16:32:00,65.0,37.0,30.18,WNW,287,3.0,14.0,36,0.00,,,0.00,,2013-03-14 20:32:00,
2013-03-14 16:42:00,65.0,37.0,30.18,WNW,287,3.0,14.0,36,0.00,,,0.00,,2013-03-14 20:42:00,
2013-03-14 16:52:00,65.0,38.0,30.18,NW,309,1.0,15.0,37,0.00,,,0.00,,2013-03-14 20:52:00,
2013-03-14 17:03:00,65.0,39.0,30.18,West,271,2.0,13.0,38,0.00,,,0.00,,2013-03-14 21:03:00,
2013-03-14 17:13:00,65.0,39.0,30.18,West,271,2.0,13.0,38,0.00,,,0.00,,2013-03-14 21:13:00,
2013-03-14 17:22:00,64.0,39.0,30.17,North,1,3.0,12.0,40,0.00,,,0.00,,2013-03-14 21:22:00,
2013-03-14 17:33:00,64.0,39.0,30.17,NNW,333,2.0,10.0,40,0.00,,,0.00,,2013-03-14 21:33:00,
2013-03-14 17:43:00,64.0,39.0,30.17,NNW,333,2.0,10.0,40,0.00,,,0.00,,2013-03-14 21:43:00,
2013-03-14 17:53:00,64.0,39.0,30.18,NW,324,3.0,10.0,40,0.00,,,0.00,,2013-03-14 21:53:00,
2013-03-14 18:03:00,64.0,40.0,30.18,NW,315,5.0,12.0,42,0.00,,,0.00,,2013-03-14 22:03:00,
2013-03-14 18:13:00,64.0,40.0,30.18,NW,315,5.0,12.0,42,0.00,,,0.00,,2013-03-14 22:13:00,
2013-03-14 18:23:00,63.0,41.0,30.18,NW,321,5.0,12.0,44,0.00,,,0.00,,2013-03-14 22:23:00,
2013-03-14 18:33:00,63.0,41.0,30.18,NNW,335,2.0,9.0,44,0.00,,,0.00,,2013-03-14 22:33:00,
2013-03-14 18:42:00,63.0,41.0,30.18,NNW,335,2.0,9.0,44,0.00,,,0.00,,2013-03-14 22:42:00,
2013-03-14 18:53:00,63.0,42.0,30.18,WNW,288,0.0,13.0,46,0.00,,,0.00,,2013-03-14 22:53:00,
2013-03-14 19:03:00,62.0,41.0,30.18,North,0,2.0,10.0,46,0.00,,,0.00,,2013-03-14 23:03:00,
2013-03-14 19:12:00,62.0,41.0,30.18,North,0,2.0,10.0,46,0.00,,,0.00,,2013-03-14 23:12:00,
2013-03-14 19:23:00,60.0,41.0,30.18,NW,311,1.0,10.0,50,0.00,,,0.00,,2013-03-14 23:23:00,
2013-03-14 19:33:00,60.0,42.0,30.19,NW,305,2.0,9.0,52,0.00,,,0.00,,2013-03-14 23:33:00,
2013-03-14 19:42:00,60.0,42.0,30.19,NW,305,2.0,9.0,52,0.00,,,0.00,,2013-03-14 23:42:00,
2013-03-14 19:54:00,59.0,42.0,30.19,NNW,331,1.0,9.0,54,0.00,,,0.00,,2013-03-14 23:54:00,
2013-03-14 20:02:00,58.0,42.0,30.19,NW,323,0.0,8.0,56,0.00,,,0.00,,2013-03-15 00:02:00,
2013-03-14 20:12:00,57.0,42.0,30.19,NNW,328,0.0,8.0,58,0.00,,,0.00,,2013-03-15 00:12:00,
2013-03-14 20:23:00,57.0,42.0,30.19,NNW,328,0.0,8.0,58,0.00,,,0.00,,2013-03-15 00:23:00,
2013-03-14 20:32:00,57.0,43.0,30.19,NW,322,0.0,5.0,59,0.00,,,0.00,,2013-03-15 00:32:00,
2013-03-14 20:42:00,57.0,43.0,30.19,NW,322,0.0,5.0,59,0.00,,,0.00,,2013-03-15 00:42:00,
2013-03-14 20:52:00,57.0,43.0,30.19,NW,309,1.0,10.0,60,0.00,,,0.00,,2013-03-15 00:52:00,
2013-03-14 21:02:00,57.0,44.0,30.19,WNW,292,1.0,10.0,61,0.00,,,0.00,,2013-03-15 01:02:00,
2013-03-14 21:12:00,57.0,44.0,30.19,WNW,292,1.0,10.0,61,0.00,,,0.00,,2013-03-15 01:12:00,
2013-03-14 21:22:00,56.0,44.0,30.20,WNW,302,0.0,6.0,63,0.00,,,0.00,,2013-03-15 01:22:00,
2013-03-14 21:32:00,56.0,44.0,30.21,NW,323,1.0,7.0,65,0.00,,,0.00,,2013-03-15 01:32:00,
2013-03-14 21:42:00,56.0,44.0,30.21,NW,323,1.0,7.0,65,0.00,,,0.00,,2013-03-15 01:42:00,
2013-03-14 21:52:00,56.0,45.0,30.22,NW,323,0.0,7.0,66,0.00,,,0.00,,2013-03-15 01:52:00,
2013-03-14 22:03:00,56.0,46.0,30.22,NW,304,0.0,6.0,68,0.00,,,0.00,,2013-03-15 02:03:00,
2013-03-14 22:12:00,56.0,46.0,30.22,NW,304,0.0,6.0,68,0.00,,,0.00,,2013-03-15 02:12:00,
2013-03-14 22:22:00,56.0,46.0,30.23,NNW,328,1.0,6.0,68,0.00,,,0.00,,2013-03-15 02:22:00,
2013-03-14 22:32:00,56.0,46.0,30.23,NNW,328,0.0,0.0,68,0.00,,,0.00,,2013-03-15 02:32:00,
2013-03-14 22:42:00,56.0,46.0,30.23,NNW,328,0.0,0.0,68,0.00,,,0.00,,2013-03-15 02:42:00,
2013-03-14 22:52:00,55.0,45.0,30.23,WNW,302,0.0,8.0,70,0.00,,,0.00,,2013-03-15 02:52:00,
2013-03-14 23:02:00,55.0,45.0,30.24,WNW,302,0.0,0.0,70,0.00,,,0.00,,2013-03-15 03:02:00,
2013-03-14 23:12:00,55.0,45.0,30.24,WNW,302,0.0,0.0,70,0.00,,,0.00,,2013-03-15 03:12:00,
2013-03-14 23:22:00,55.0,46.0,30.24,WNW,302,0.0,0.0,72,0.00,,,0.00,,2013-03-15 03:22:00,
2013-03-14 23:33:00,55.0,46.0,30.24,WNW,302,0.0,0.0,72,0.00,,,0.00,,2013-03-15 03:33:00,
2013-03-14 23:43:00,55.0,46.0,30.24,WNW,302,0.0,0.0,72,0.00,,,0.00,,2013-03-15 03:43:00,
2013-03-14 23:53:00,55.0,47.0,30.24,WNW,287,0.0,6.0,74,0.00,,,0.00,,2013-03-15 03:53:00,